Location: Newark
(7.0858°N, 171.3717°E)
Time: 20:41:59
(UTC+00:00)

Tiros 1 - Pass Details

Date: 04 December 2020
Orbit: 630 x 663 km, 48.4° (Epoch: 18 January)

Event Time Altitude Azimuth Distance (km) Brightness Sun altitude
Rises 00:42:44 0° 261° (W) 2,968 10.7 60.3°
Reaches altitude 10° 00:46:40 10° 293° (WNW) 2,062 9.8 60.2°
Maximum altitude 00:48:21 12° 314° (NW) 1,950 9.6 60.1°
Drops below altitude 10° 00:50:02 10° 335° (NNW) 2,065 9.6 60.0°
Sets 00:54:00 0° 7° (N) 2,978 10.3 59.8°
